User: anonymous   Login
Location: Chanteloup
(48.8560°N, 2.7390°E)
Time: 03:16:27
(UTC+00:00)
Language:

CSL-04 Rocket - Orbit

View from above orbital plane
View from above orbital plane
View from above satellite
View from above satellite

Ground track
Ground track

The orbit data is extracted from the following two-line orbital elements,

1 25732U 99025C   22026.59789372 -.00000033  00000-0  56863-5 0  9996
2 25732  98.8758  68.2346 0036830 334.2288 137.2059 14.17711608175157
Epoch (UTC): 26 January 2022 14:20:58
Eccentricity: 0.0036830
inclination: 98.8758°
perigee height: 806 km
apogee height: 859 km
right ascension of ascending node: 68.2346°
argument of perigee: 334.2288°
revolutions per day: 14.17711608
mean anomaly at epoch: 137.2059°
orbit number at epoch: 17515

The dashed part of the orbit path shows where the satellite is in the earth's shadow,  

DLR